"startDT [UTC]","vpos","CH4 [ppm]","stdev(CH4) [ppm]","CO2 [ppm]","stdev(CO2) [ppm]","H2O_reported [%]","stdev(H2O_reported)","CavityPressure [torr]","CavityTemp [C]","OutletValve","CH4_dry [ppm]","CO2_dry [ppm]","DasTemp [C]","EtalonTemp [C]","WarmBoxTemp [C]","MPVPosition","T_ECpre [C]","T_EC1 [C]","T_EC2 [C]","p_inlet [hPa]","p_in [hPa]","p_out [hPa]","T_inlet [C]","RH_inlet [%]","dwpt_inlet [C]","T_vent [C]","RH_vent [%]","dwpt_vent [C]","flow_vent [l min-1]","flow_inlet [l min-1]","dwpt_sample [C]","T_room [C]"
2015-05-29 00:00:00,0.0,1.90415,0.00046,402.541,0.026,0.5453,0.0028,140.001,45.000,34210.81462,1.91451,405.228,32.313,45.068,45.000,0.00,0.09,-272.72,-272.78,-5,982,-4,22.6,14.9,-5.4,22.3,15.4,-5.2,5.73,1.96,-5.9,26.8
2015-05-29 00:01:00,0.0,1.90374,0.00031,402.504,0.027,0.5484,0.0016,140.001,45.000,34211.45687,1.91423,405.202,32.312,45.068,45.000,0.00,0.09,-272.72,-272.79,-5,982,-4,22.6,15.0,-5.3,22.3,15.5,-5.1,5.73,1.97,-5.9,26.8
2015-05-29 00:02:00,0.0,1.90385,0.00042,402.543,0.021,0.5484,0.0016,139.999,45.000,34210.03699,1.91428,405.242,32.303,45.068,45.000,0.00,0.09,-272.72,-272.79,-5,981,-4,22.7,15.0,-5.3,22.4,15.5,-5.1,5.73,1.97,-5.9,26.8
2015-05-29 00:03:00,0.0,1.90393,0.00044,402.558,0.036,0.5491,0.0016,140.001,45.000,34209.35628,1.91439,405.260,32.283,45.068,45.000,0.00,0.09,-272.72,-272.78,-6,981,-4,22.7,15.0,-5.3,22.4,15.5,-5.1,5.73,1.97,-5.8,26.8
2015-05-29 00:04:00,0.0,1.90395,0.00037,402.528,0.027,0.5516,0.0027,139.996,45.000,34209.82948,1.91447,405.243,32.278,45.068,45.000,0.00,0.09,-272.72,-272.78,-6,981,-4,22.7,15.1,-5.2,22.4,15.6,-5.0,5.73,1.96,-5.9,26.8
2015-05-29 00:05:00,0.0,1.90388,0.00045,402.519,0.026,0.5493,0.0026,139.998,45.000,34208.36330,1.91431,405.223,32.279,45.068,45.000,0.00,0.09,-272.73,-272.78,-6,981,-4,22.7,15.1,-5.2,22.4,15.6,-5.1,5.73,1.96,-5.9,26.8
2015-05-29 00:06:00,0.0,1.90403,0.00034,402.524,0.020,0.5457,0.0027,139.999,45.000,34208.71766,1.91440,405.208,32.295,45.068,45.000,0.00,0.09,-272.72,-272.78,-6,981,-3,22.7,15.0,-5.3,22.4,15.5,-5.1,5.73,1.97,-5.9,26.7
2015-05-29 00:07:00,0.0,1.90392,0.00028,402.552,0.036,0.5442,0.0016,140.000,45.000,34211.00220,1.91433,405.232,32.309,45.068,45.000,0.00,0.09,-272.73,-272.78,-6,981,-4,22.7,14.9,-5.4,22.4,15.4,-5.2,5.73,1.97,-5.8,26.8
2015-05-29 00:08:00,0.0,1.90386,0.00029,402.565,0.028,0.5422,0.0026,140.000,45.000,34210.06950,1.91422,405.232,32.311,45.068,45.000,0.00,0.09,-272.73,-272.79,-6,981,-4,22.7,14.9,-5.4,22.4,15.3,-5.2,5.73,1.97,-5.9,26.8
2015-05-29 00:09:00,0.0,1.90362,0.00027,402.526,0.028,0.5514,0.0018,140.001,45.000,34210.31533,1.91408,405.241,32.308,45.068,45.000,0.00,0.09,-272.72,-272.78,-6,982,-4,22.7,15.1,-5.2,22.4,15.5,-5.1,5.73,1.97,-5.9,26.8
2015-05-29 00:10:00,0.0,1.90380,0.00039,402.504,0.026,0.5550,0.0025,139.995,45.000,34208.12049,1.91436,405.233,32.313,45.068,45.000,0.00,0.09,-272.71,-272.78,-6,982,-4,22.7,15.2,-5.1,22.4,15.7,-4.9,5.73,1.97,-5.9,26.8
2015-05-29 00:11:00,0.0,1.90376,0.00044,402.508,0.021,0.5551,0.0016,139.998,45.000,34210.23059,1.91433,405.242,32.307,45.068,45.000,0.00,0.09,-272.72,-272.79,-6,982,-4,22.7,15.2,-5.1,22.4,15.7,-4.9,5.73,1.97,-5.9,26.8
2015-05-29 00:12:00,0.0,1.90379,0.00038,402.538,0.022,0.5496,0.0024,139.997,45.000,34209.65280,1.91427,405.245,32.299,45.068,45.000,0.00,0.09,-272.73,-272.78,-5,981,-4,22.7,15.0,-5.3,22.4,15.5,-5.1,5.73,1.96,-5.9,26.8
2015-05-29 00:13:00,0.0,1.90404,0.00037,402.542,0.031,0.5460,0.0018,140.003,45.000,34211.24768,1.91446,405.231,32.308,45.068,45.000,0.00,0.09,-272.72,-272.78,-5,982,-4,22.7,15.0,-5.3,22.4,15.4,-5.1,5.73,1.97,-5.9,26.7
2015-05-29 00:14:00,0.0,1.90391,0.00029,402.554,0.034,0.5455,0.0025,139.996,45.000,34209.37836,1.91429,405.237,32.287,45.068,45.000,0.00,0.09,-272.72,-272.78,-5,982,-4,22.7,14.9,-5.4,22.4,15.4,-5.2,5.73,1.97,-5.9,26.7
2015-05-29 00:15:00,0.0,1.90381,0.00037,402.524,0.029,0.5438,0.0012,140.002,45.000,34210.97571,1.91418,405.202,32.309,45.068,45.000,0.00,0.09,-272.73,-272.79,-6,981,-4,22.7,14.9,-5.4,22.4,15.4,-5.2,5.73,1.96,-5.9,26.8
2015-05-29 00:16:00,0.0,1.90362,0.00036,402.539,0.033,0.5450,0.0021,139.998,45.000,34211.90903,1.91401,405.222,32.304,45.068,45.000,0.00,0.09,-272.72,-272.78,-5,981,-4,22.7,14.9,-5.4,22.4,15.4,-5.2,5.73,1.97,-5.9,26.8
2015-05-29 00:17:00,0.0,1.90400,0.00022,402.583,0.031,0.5416,0.0018,139.995,45.000,34208.86547,1.91434,405.250,32.305,45.068,45.000,0.00,0.09,-272.72,-272.78,-6,981,-4,22.7,14.8,-5.4,22.4,15.3,-5.3,5.73,1.97,-5.9,26.8
2015-05-29 00:18:00,0.0,1.90365,0.00026,402.545,0.029,0.5418,0.0032,139.999,45.000,34213.19300,1.91394,405.213,32.311,45.068,45.000,0.00,0.09,-272.73,-272.79,-6,982,-4,22.7,14.8,-5.4,22.4,15.3,-5.3,5.73,1.97,-5.9,26.8
2015-05-29 00:19:00,0.0,1.90393,0.00048,402.566,0.028,0.5412,0.0020,139.997,45.000,34211.02521,1.91423,405.225,32.307,45.068,45.000,0.00,0.09,-272.72,-272.78,-6,981,-4,22.7,14.8,-5.4,22.4,15.3,-5.3,5.73,1.97,-5.8,26.8
2015-05-29 00:20:00,0.0,1.90399,0.00027,402.564,0.039,0.5433,0.0024,140.000,45.000,34210.94319,1.91436,405.239,32.312,45.068,45.000,0.00,0.09,-272.72,-272.78,-6,982,-4,22.7,14.9,-5.4,22.4,15.3,-5.3,5.73,1.97,-5.8,26.8
2015-05-29 00:21:00,0.0,1.90366,0.00027,402.558,0.029,0.5432,0.0013,140.006,45.000,34214.59311,1.91401,405.231,32.313,45.068,45.000,0.00,0.09,-272.73,-272.78,-6,982,-4,22.7,14.9,-5.4,22.4,15.3,-5.2,5.73,1.96,-5.9,26.8
2015-05-29 00:22:00,0.0,1.90374,0.00029,402.587,0.017,0.5393,0.0023,139.997,45.000,34212.92376,1.91401,405.241,32.314,45.068,45.000,0.00,0.09,-272.73,-272.78,-6,982,-4,22.7,14.8,-5.5,22.4,15.2,-5.3,5.73,1.97,-5.9,26.8
2015-05-29 00:23:00,0.0,1.90395,0.00027,402.578,0.019,0.5416,0.0031,139.998,45.000,34215.28767,1.91422,405.243,32.314,45.068,45.000,0.00,0.09,-272.72,-272.78,-6,982,-4,22.7,14.8,-5.5,22.4,15.2,-5.3,5.73,1.97,-5.8,26.9
2015-05-29 00:24:00,0.0,1.90407,0.00043,402.529,0.034,0.5488,0.0034,140.001,45.000,34213.29952,1.91458,405.231,32.313,45.068,45.000,0.00,0.09,-272.72,-272.78,-6,982,-4,22.7,15.0,-5.3,22.4,15.4,-5.1,5.73,1.96,-5.8,26.8
2015-05-29 00:25:00,0.0,1.90403,0.00039,402.597,0.056,0.5410,0.0066,139.996,45.000,34212.98977,1.91432,405.259,32.337,45.068,45.000,0.00,0.09,-272.72,-272.79,-5,981,-4,22.7,14.8,-5.5,22.4,15.3,-5.2,5.73,1.97,-5.9,26.8
2015-05-29 00:26:00,0.0,1.90401,0.00035,402.613,0.024,0.5332,0.0021,140.002,45.000,34215.31974,1.91414,405.237,32.346,45.068,45.000,0.00,0.09,-272.72,-272.78,-5,982,-4,22.7,14.6,-5.7,22.4,15.0,-5.5,5.73,1.96,-5.9,26.8
2015-05-29 00:27:00,0.0,1.90416,0.00037,402.619,0.033,0.5365,0.0021,140.000,45.000,34213.90444,1.91438,405.258,32.355,45.068,45.000,0.00,0.09,-272.72,-272.78,-6,982,-4,22.7,14.7,-5.6,22.4,15.1,-5.4,5.73,1.97,-5.9,26.8
2015-05-29 00:28:00,0.0,1.90431,0.00052,402.599,0.037,0.5371,0.0020,139.994,45.000,34211.37858,1.91450,405.243,32.359,45.068,45.000,0.00,0.09,-272.73,-272.79,-6,981,-4,22.7,14.7,-5.6,22.4,15.1,-5.4,5.73,1.96,-5.8,26.8
2015-05-29 00:29:00,0.0,1.90451,0.00044,402.666,0.031,0.5303,0.0031,139.999,45.000,34209.55959,1.91466,405.276,32.335,45.068,45.000,0.00,0.09,-272.72,-272.78,-6,981,-4,22.7,14.5,-5.7,22.4,15.0,-5.5,5.73,1.96,-5.9,26.8
2015-05-29 00:30:00,0.0,1.90446,0.00031,402.643,0.044,0.5318,0.0023,139.994,45.000,34209.70423,1.91456,405.260,32.345,45.068,45.000,0.00,0.09,-272.72,-272.78,-6,981,-4,22.7,14.5,-5.7,22.4,14.9,-5.6,5.73,1.97,-5.9,26.8
2015-05-29 00:31:00,0.0,1.90414,0.00032,402.608,0.033,0.5349,0.0024,139.998,45.000,34210.43088,1.91437,405.239,32.347,45.068,45.000,0.00,0.09,-272.73,-272.78,-6,982,-4,22.7,14.6,-5.6,22.4,15.0,-5.5,5.73,1.96,-5.8,26.8
2015-05-29 00:32:00,0.0,1.90437,0.00031,402.584,0.031,0.5383,0.0021,140.007,45.000,34213.12139,1.91458,405.234,32.341,45.068,45.000,0.00,0.09,-272.73,-272.79,-6,982,-4,22.7,14.7,-5.5,22.4,15.1,-5.4,5.73,1.97,-5.8,26.7
2015-05-29 00:33:00,0.0,1.90422,0.00041,402.608,0.038,0.5360,0.0019,139.994,45.000,34211.41916,1.91446,405.245,32.344,45.068,45.000,0.00,0.09,-272.72,-272.78,-6,982,-4,22.7,14.7,-5.6,22.4,15.1,-5.4,5.73,1.96,-5.8,26.8
2015-05-29 00:34:00,0.0,1.90438,0.00026,402.624,0.022,0.5321,0.0019,139.996,45.000,34212.44837,1.91450,405.243,32.338,45.068,45.000,0.00,0.09,-272.72,-272.78,-6,982,-4,22.7,14.5,-5.7,22.4,15.0,-5.5,5.73,1.96,-5.9,26.9
2015-05-29 00:35:00,0.0,1.90421,0.00027,402.641,0.020,0.5313,0.0037,140.001,45.000,34217.44530,1.91435,405.254,32.345,45.068,45.000,0.00,0.09,-272.73,-272.79,-6,982,-4,22.7,14.5,-5.7,22.4,15.0,-5.6,5.73,1.96,-5.8,26.8
2015-05-29 00:36:00,0.0,1.90415,0.00039,402.605,0.035,0.5330,0.0019,139.999,45.000,34212.69936,1.91426,405.228,32.324,45.068,45.000,0.00,0.09,-272.73,-272.78,-6,982,-4,22.7,14.6,-5.7,22.4,15.0,-5.5,5.73,1.96,-5.8,26.8
2015-05-29 00:37:00,0.0,1.90453,0.00031,402.651,0.022,0.5333,0.0018,140.000,45.000,34212.49015,1.91470,405.276,32.331,45.068,45.000,0.00,0.09,-272.72,-272.78,-6,981,-4,22.7,14.6,-5.7,22.4,15.0,-5.5,5.73,1.96,-5.8,26.8
2015-05-29 00:38:00,0.0,1.90463,0.00024,402.691,0.045,0.5346,0.0021,139.996,45.000,34210.57294,1.91481,405.320,32.337,45.068,45.000,0.00,0.09,-272.72,-272.79,-5,982,-4,22.7,14.6,-5.7,22.4,15.0,-5.5,5.73,1.96,-5.8,26.8
2015-05-29 00:39:00,0.0,1.90476,0.00043,402.700,0.025,0.5263,0.0027,140.001,45.000,34211.32181,1.91478,405.293,32.339,45.068,45.000,0.00,0.09,-272.72,-272.79,-5,981,-3,22.7,14.4,-5.8,22.4,14.8,-5.7,5.73,1.96,-5.8,26.8
2015-05-29 00:40:00,0.0,1.90466,0.00036,402.696,0.019,0.5268,0.0030,140.001,45.000,34211.36679,1.91472,405.287,32.343,45.068,45.000,0.00,0.09,-272.71,-272.78,-6,982,-4,22.7,14.4,-5.8,22.4,14.8,-5.7,5.73,1.96,-5.8,26.8
2015-05-29 00:41:00,0.0,1.90425,0.00030,402.664,0.030,0.5314,0.0020,140.000,45.000,34213.22213,1.91440,405.278,32.353,45.068,45.000,0.00,0.09,-272.72,-272.78,-6,982,-4,22.7,14.5,-5.7,22.4,14.9,-5.6,5.73,1.96,-5.8,26.9
2015-05-29 00:42:00,0.0,1.90455,0.00033,402.618,0.026,0.5355,0.0019,139.998,45.000,34214.81696,1.91468,405.253,32.370,45.068,45.000,0.00,0.09,-272.73,-272.78,-6,982,-4,22.7,14.6,-5.6,22.4,15.0,-5.5,5.73,1.96,-5.8,26.8
2015-05-29 00:43:00,0.0,1.90420,0.00023,402.632,0.035,0.5354,0.0023,140.000,45.000,34216.07790,1.91445,405.268,32.374,45.068,45.000,0.00,0.10,-272.72,-272.78,-6,982,-4,22.7,14.6,-5.6,22.4,15.1,-5.5,5.73,1.96,-5.8,26.9
2015-05-29 00:44:00,0.0,1.90423,0.00024,402.613,0.034,0.5376,0.0017,139.999,45.000,34214.66733,1.91446,405.259,32.375,45.068,45.000,0.00,0.09,-272.72,-272.78,-6,982,-4,22.8,14.7,-5.5,22.4,15.1,-5.5,5.73,1.96,-5.8,26.8
2015-05-29 00:45:00,0.0,1.90409,0.00036,402.629,0.028,0.5354,0.0015,140.002,45.000,34215.55646,1.91431,405.263,32.374,45.068,45.000,0.00,0.09,-272.72,-272.79,-6,982,-4,22.8,14.6,-5.5,22.4,15.1,-5.5,5.73,1.96,-5.8,26.9
2015-05-29 00:46:00,0.0,1.90436,0.00034,402.669,0.047,0.5318,0.0023,140.003,45.000,34214.14611,1.91446,405.286,32.372,45.068,45.000,0.00,0.09,-272.72,-272.78,-6,981,-4,22.7,14.5,-5.7,22.4,15.0,-5.5,5.73,1.96,-5.8,26.8
2015-05-29 00:47:00,0.0,1.90470,0.00036,402.685,0.032,0.5272,0.0023,139.999,45.000,34215.19099,1.91474,405.277,32.365,45.068,45.000,0.00,0.09,-272.72,-272.78,-6,982,-4,22.7,14.4,-5.8,22.4,14.8,-5.7,5.73,1.96,-5.8,26.9
2015-05-29 00:48:00,0.0,1.90471,0.00043,402.706,0.039,0.5256,0.0017,139.998,45.000,34213.79311,1.91474,405.294,32.338,45.068,45.000,0.00,0.09,-272.73,-272.78,-6,981,-4,22.7,14.3,-5.8,22.4,14.8,-5.7,5.73,1.96,-5.8,26.8
2015-05-29 00:49:00,0.0,1.90438,0.00031,402.723,0.025,0.5249,0.0028,140.002,45.000,34218.42675,1.91436,405.305,32.334,45.068,45.000,0.00,0.09,-272.73,-272.78,-6,982,-4,22.7,14.3,-5.8,22.4,14.7,-5.7,5.73,1.96,-5.8,26.8
2015-05-29 00:50:00,0.0,1.90451,0.00022,402.706,0.029,0.5215,0.0026,140.000,45.000,34216.10945,1.91444,405.272,32.341,45.068,45.000,0.00,0.09,-272.72,-272.78,-6,981,-3,22.7,14.2,-6.0,22.4,14.7,-5.8,5.73,1.96,-5.8,26.8
2015-05-29 00:51:00,0.0,1.90474,0.00031,402.753,0.031,0.5192,0.0023,139.999,45.000,34215.82035,1.91461,405.307,32.345,45.068,45.000,0.00,0.09,-272.72,-272.78,-5,981,-4,22.7,14.2,-6.0,22.4,14.6,-5.9,5.73,1.96,-5.8,26.9
2015-05-29 00:52:00,0.0,1.90418,0.00033,402.710,0.032,0.5238,0.0018,139.999,45.000,34217.81091,1.91418,405.285,32.363,45.068,45.000,0.00,0.09,-272.72,-272.79,-6,982,-4,22.7,14.3,-5.9,22.4,14.7,-5.8,5.73,1.96,-5.8,26.8
2015-05-29 00:53:00,0.0,1.90436,0.00043,402.701,0.044,0.5289,0.0042,140.001,45.000,34217.67997,1.91438,405.305,32.374,45.068,45.000,0.00,0.09,-272.72,-272.79,-6,982,-4,22.7,14.4,-5.8,22.4,14.8,-5.7,5.73,1.96,-5.8,26.8
2015-05-29 00:54:00,0.0,1.90434,0.00037,402.703,0.043,0.5254,0.0019,140.004,45.000,34219.01632,1.91435,405.288,32.370,45.068,45.000,0.00,0.09,-272.72,-272.78,-6,982,-4,22.7,14.3,-5.8,22.4,14.8,-5.7,5.73,1.95,-5.8,26.8
2015-05-29 00:55:00,0.0,1.90446,0.00030,402.703,0.034,0.5226,0.0027,139.992,45.000,34214.77729,1.91444,405.276,32.360,45.068,45.000,0.00,0.09,-272.73,-272.79,-5,981,-4,22.7,14.2,-5.9,22.4,14.7,-5.8,5.73,1.96,-5.8,26.9
2015-05-29 00:56:00,0.0,1.90493,0.00034,402.751,0.040,0.5203,0.0030,140.000,45.000,34213.35249,1.91483,405.307,32.370,45.068,45.000,0.00,0.09,-272.73,-272.78,-5,982,-4,22.7,14.2,-6.0,22.4,14.6,-5.8,5.73,1.96,-5.8,26.8
2015-05-29 00:57:00,0.0,1.90482,0.00036,402.731,0.031,0.5237,0.0019,140.003,45.000,34215.50388,1.91480,405.309,32.358,45.068,45.000,0.00,0.09,-272.72,-272.78,-6,982,-4,22.7,14.3,-5.9,22.4,14.7,-5.8,5.73,1.96,-5.8,26.8
2015-05-29 00:58:00,0.0,1.90458,0.00026,402.727,0.019,0.5239,0.0012,140.000,45.000,34214.82410,1.91453,405.306,32.373,45.068,45.000,0.00,0.09,-272.73,-272.78,-6,982,-4,22.7,14.3,-5.9,22.4,14.7,-5.8,5.73,1.96,-5.8,26.7
2015-05-29 00:59:00,0.0,1.90448,0.00046,402.764,0.030,0.5227,0.0019,140.001,45.000,34217.86571,1.91444,405.335,32.374,45.068,45.000,0.00,0.09,-272.73,-272.79,-6,982,-4,22.7,14.3,-5.9,22.5,14.7,-5.8,5.73,1.96,-5.8,26.8
2015-05-29 01:00:00,0.0,1.90478,0.00020,402.727,0.037,0.5243,0.0021,139.998,45.000,34213.28614,1.91476,405.305,32.372,45.068,45.000,0.00,0.09,-272.72,-272.78,-6,981,-3,22.8,14.3,-5.9,22.4,14.7,-5.7,5.73,1.96,-5.8,26.9
2015-05-29 01:01:00,0.0,1.90467,0.00038,402.782,0.036,0.5265,0.0021,140.001,45.000,34214.42881,1.91469,405.372,32.357,45.068,45.000,0.00,0.09,-272.72,-272.78,-6,982,-4,22.7,14.4,-5.8,22.4,14.8,-5.7,5.73,1.96,-5.8,26.8
2015-05-29 01:02:00,0.0,1.90465,0.00040,402.818,0.036,0.5280,0.0022,139.998,45.000,34215.97091,1.91473,405.416,32.365,45.068,45.000,0.00,0.09,-272.72,-272.78,-6,981,-4,22.8,14.4,-5.7,22.4,14.8,-5.6,5.73,1.96,-5.8,26.9
2015-05-29 01:03:00,0.0,1.90466,0.00045,402.906,0.039,0.5303,0.0023,139.998,45.000,34217.92269,1.91475,405.516,32.373,45.068,45.000,0.00,0.09,-272.72,-272.78,-6,981,-4,22.8,14.4,-5.7,22.4,14.8,-5.6,5.73,1.96,-5.8,26.8
2015-05-29 01:04:00,0.0,1.90452,0.00038,402.921,0.091,0.5349,0.0020,140.001,45.000,34217.80220,1.91470,405.549,32.375,45.068,45.000,0.00,0.09,-272.72,-272.77,-6,982,-4,22.8,14.6,-5.6,22.5,15.0,-5.5,5.73,1.96,-5.8,26.8
2015-05-29 01:05:00,0.0,1.90459,0.00053,402.937,0.036,0.5317,0.0015,140.001,45.000,34217.59395,1.91474,405.560,32.374,45.068,45.000,0.00,0.09,-272.73,-272.79,-6,982,-4,22.8,14.5,-5.6,22.5,14.9,-5.5,5.73,1.96,-5.8,26.8
2015-05-29 01:06:00,0.0,1.90438,0.00023,402.904,0.041,0.5326,0.0023,140.000,45.000,34218.54345,1.91452,405.529,32.375,45.068,45.000,0.00,0.09,-272.72,-272.79,-6,982,-5,22.8,14.5,-5.6,22.5,14.9,-5.5,5.73,1.96,-5.8,26.9
2015-05-29 01:07:00,0.0,1.90428,0.00040,402.854,0.024,0.5298,0.0029,140.002,45.000,34219.74103,1.91436,405.465,32.375,45.068,45.000,0.00,0.09,-272.72,-272.79,-6,982,-4,22.8,14.4,-5.7,22.5,14.9,-5.6,5.73,1.96,-5.8,26.9
2015-05-29 01:08:00,0.0,1.90449,0.00019,402.885,0.055,0.5247,0.0018,140.001,45.000,34218.03607,1.91449,405.463,32.375,45.068,45.000,0.00,0.09,-272.72,-272.79,-6,981,-4,22.8,14.3,-5.8,22.5,14.7,-5.7,5.73,1.96,-5.8,26.8
2015-05-29 01:09:00,0.0,1.90469,0.00046,402.906,0.102,0.5233,0.0020,140.003,45.000,34217.98104,1.91465,405.488,32.375,45.068,45.000,0.00,0.09,-272.72,-272.79,-5,982,-3,22.8,14.3,-5.9,22.5,14.7,-5.7,5.73,1.96,-5.8,26.8
2015-05-29 01:10:00,0.0,1.90449,0.00045,402.782,0.053,0.5269,0.0019,140.004,45.000,34220.23721,1.91453,405.378,32.375,45.068,45.000,0.00,0.09,-272.72,-272.78,-7,982,-4,22.8,14.3,-5.8,22.5,14.7,-5.7,5.73,1.96,-5.8,26.9
2015-05-29 01:11:00,0.0,1.90435,0.00032,402.735,0.024,0.5263,0.0023,139.999,45.000,34219.04537,1.91438,405.325,32.375,45.068,45.000,0.00,0.09,-272.72,-272.78,-5,982,1,22.8,14.3,-5.8,22.5,14.7,-5.7,5.73,1.96,-5.8,26.9
2015-05-29 01:12:00,0.0,1.90445,0.00026,402.737,0.027,0.5235,0.0016,139.995,45.000,34218.11446,1.91439,405.313,32.378,45.068,45.000,0.00,0.09,-272.73,-272.78,-3,981,-4,22.8,14.3,-5.9,22.5,14.7,-5.7,5.73,1.96,-5.8,26.9
2015-05-29 01:13:00,0.0,1.90438,0.00032,402.755,0.031,0.5238,0.0019,139.998,45.000,34218.88261,1.91438,405.331,32.375,45.068,45.000,0.00,0.09,-272.72,-272.78,-5,980,-6,22.7,14.3,-5.9,22.5,14.7,-5.7,5.73,1.97,-5.8,26.9
2015-05-29 01:14:00,0.0,1.90479,0.00029,402.764,0.026,0.5260,0.0024,140.002,45.000,34216.93609,1.91478,405.353,32.368,45.068,45.000,0.00,0.09,-272.72,-272.78,-7,982,-4,22.8,14.4,-5.8,22.5,14.7,-5.7,5.73,1.96,-5.8,26.8
2015-05-29 01:15:00,0.0,1.90439,0.00032,402.765,0.037,0.5290,0.0020,140.003,45.000,34218.86457,1.91448,405.366,32.364,45.068,45.000,0.00,0.09,-272.72,-272.79,-6,984,-5,22.8,14.4,-5.7,22.5,14.8,-5.6,5.73,1.96,-5.8,26.8
2015-05-29 01:16:00,0.0,1.90451,0.00037,402.783,0.025,0.5259,0.0016,139.999,45.000,34216.76129,1.91451,405.374,32.370,45.068,45.000,0.00,0.09,-272.72,-272.79,-6,979,-4,22.8,14.3,-5.8,22.5,14.7,-5.7,5.73,1.96,-5.8,26.9
2015-05-29 01:17:00,0.0,1.90439,0.00030,402.769,0.042,0.5320,0.0037,140.001,45.000,34217.92084,1.91456,405.387,32.374,45.068,45.000,0.00,0.09,-272.72,-272.77,-6,981,-3,22.8,14.5,-5.7,22.5,14.8,-5.6,5.73,1.96,-5.8,26.9
2015-05-29 01:18:00,0.0,1.90434,0.00039,402.731,0.031,0.5352,0.0013,140.002,45.000,34217.78368,1.91450,405.365,32.371,45.068,45.000,0.00,0.09,-272.72,-272.78,-6,984,-4,22.8,14.6,-5.6,22.5,15.0,-5.5,5.73,1.97,-5.8,26.8
2015-05-29 01:19:00,0.0,1.90463,0.00047,402.760,0.026,0.5305,0.0017,139.999,45.000,34217.36549,1.91477,405.371,32.375,45.068,45.000,0.00,0.09,-272.73,-272.79,-6,981,-4,22.8,14.4,-5.7,22.5,14.9,-5.6,5.73,1.96,-5.8,26.8
2015-05-29 01:20:00,0.0,1.90510,0.00039,402.769,0.038,0.5226,0.0034,140.000,45.000,34216.93431,1.91502,405.344,32.375,45.068,45.000,0.00,0.09,-272.72,-272.78,-6,982,-4,22.8,14.2,-5.9,22.5,14.7,-5.7,5.73,1.96,-5.8,26.8
2015-05-29 01:21:00,0.0,1.90469,0.00034,402.777,0.035,0.5192,0.0015,139.999,45.000,34220.28251,1.91460,405.330,32.380,45.068,45.000,0.00,0.09,-272.72,-272.78,-6,982,-4,22.8,14.1,-6.0,22.5,14.5,-5.9,5.73,1.97,-5.8,26.9
2015-05-29 01:22:00,0.0,1.90464,0.00041,402.771,0.032,0.5192,0.0020,139.996,45.000,34220.14597,1.91453,405.326,32.377,45.068,45.000,0.00,0.09,-272.72,-272.79,-6,982,-4,22.8,14.1,-6.0,22.5,14.5,-5.9,5.73,1.97,-5.8,26.9
2015-05-29 01:23:00,0.0,1.90434,0.00033,402.734,0.035,0.5230,0.0018,140.002,45.000,34222.66888,1.91431,405.307,32.379,45.068,45.000,0.00,0.09,-272.72,-272.79,-6,982,-4,22.8,14.2,-5.9,22.5,14.6,-5.8,5.73,1.96,-5.8,26.9
2015-05-29 01:24:00,0.0,1.90469,0.00026,402.741,0.023,0.5229,0.0017,140.002,45.000,34221.27565,1.91461,405.313,32.381,45.068,45.000,0.00,0.09,-272.72,-272.78,-6,982,-4,22.8,14.2,-5.9,22.5,14.6,-5.8,5.73,1.96,-5.8,26.9
2015-05-29 01:25:00,0.0,1.90452,0.00051,402.764,0.027,0.5224,0.0021,140.000,45.000,34217.60528,1.91454,405.333,32.382,45.068,45.000,0.00,0.09,-272.72,-272.79,-6,982,-4,22.8,14.2,-5.9,22.5,14.6,-5.8,5.73,1.97,-5.8,26.9
2015-05-29 01:26:00,0.0,1.90428,0.00032,402.764,0.032,0.5243,0.0016,139.995,45.000,34217.69670,1.91421,405.343,32.398,45.068,45.000,0.00,0.09,-272.73,-272.78,-6,982,-4,22.8,14.3,-5.8,22.5,14.7,-5.7,5.73,1.96,-5.8,26.9
2015-05-29 01:27:00,0.0,1.90447,0.00038,402.746,0.032,0.5226,0.0019,140.002,45.000,34221.48771,1.91444,405.319,32.394,45.068,45.000,0.00,0.09,-272.73,-272.78,-6,982,-4,22.8,14.2,-5.9,22.5,14.7,-5.7,5.73,1.97,-5.8,26.9
2015-05-29 01:28:00,0.0,1.90415,0.00029,402.752,0.036,0.5257,0.0024,140.000,45.000,34222.35603,1.91413,405.342,32.415,45.068,45.000,0.00,0.31,-270.84,-271.61,-6,982,-4,22.8,14.3,-5.8,22.5,14.7,-5.7,5.43,2.10,-8.8,26.9
2015-05-29 01:29:00,0.0,1.90438,0.00015,402.712,0.032,0.5262,0.0023,140.000,45.000,34220.77774,1.91441,405.299,32.413,45.068,45.000,0.00,0.09,-272.73,-272.78,-6,982,-4,22.8,14.3,-5.8,22.5,14.7,-5.7,5.73,1.97,-5.8,26.9
2015-05-29 01:30:00,0.0,1.90421,0.00040,402.689,0.026,0.5350,0.0027,140.000,45.000,34219.87421,1.91439,405.324,32.397,45.068,45.000,0.00,0.09,-272.72,-272.78,-6,982,-3,22.8,14.6,-5.6,22.5,14.9,-5.5,5.73,1.97,-5.8,26.9
2015-05-29 01:31:00,0.0,1.90420,0.00038,402.699,0.028,0.5321,0.0028,140.003,45.000,34225.58597,1.91436,405.318,32.395,45.068,45.000,0.00,0.09,-272.72,-272.78,-6,982,-4,22.8,14.5,-5.7,22.5,14.9,-5.5,5.73,1.97,-5.8,26.9
2015-05-29 01:32:00,0.0,1.90399,0.00027,402.699,0.029,0.5361,0.0037,139.998,45.000,34221.55115,1.91418,405.336,32.397,45.068,45.000,0.00,0.09,-272.72,-272.79,-6,982,-4,22.8,14.6,-5.6,22.5,14.9,-5.5,5.73,1.96,-5.8,27.0
2015-05-29 01:33:00,0.0,1.90416,0.00036,402.658,0.023,0.5419,0.0029,140.003,45.000,34225.52529,1.91447,405.325,32.404,45.068,45.000,0.00,0.09,-272.72,-272.78,-6,982,-4,22.8,14.7,-5.5,22.5,15.1,-5.3,5.73,1.97,-5.8,26.9
2015-05-29 01:34:00,0.0,1.90422,0.00048,402.703,0.031,0.5360,0.0028,139.996,45.000,34222.07317,1.91443,405.340,32.392,45.068,45.000,0.00,0.09,-272.72,-272.78,-6,982,-4,22.8,14.6,-5.6,22.5,15.0,-5.4,5.73,1.97,-5.8,26.9
2015-05-29 01:35:00,0.0,1.90420,0.00046,402.663,0.031,0.5364,0.0027,140.001,45.000,34224.20213,1.91440,405.304,32.422,45.068,45.000,0.00,0.09,-272.72,-272.78,-6,982,-4,22.8,14.6,-5.6,22.5,15.0,-5.4,5.73,1.96,-5.8,26.9
2015-05-29 01:36:00,0.0,1.90438,0.00045,402.740,0.052,0.5247,0.0055,140.002,45.000,34222.98858,1.91438,405.324,32.427,45.068,45.000,0.00,0.09,-272.73,-272.79,-6,983,-4,22.8,14.3,-5.9,22.5,14.7,-5.6,5.73,1.96,-5.8,26.9
2015-05-29 01:37:00,0.0,1.90444,0.00036,402.807,0.022,0.5148,0.0023,139.999,45.000,34224.56952,1.91427,405.341,32.431,45.068,45.000,0.00,0.09,-272.72,-272.78,-6,982,-4,22.8,14.0,-6.1,22.5,14.4,-5.9,5.73,1.97,-5.8,26.9
2015-05-29 01:38:00,0.0,1.90447,0.00037,402.809,0.034,0.5163,0.0021,140.002,45.000,34223.12750,1.91429,405.349,32.434,45.068,45.000,0.00,0.09,-272.72,-272.78,-6,982,-4,22.8,14.0,-6.1,22.5,14.4,-5.9,5.73,1.96,-5.8,26.9
2015-05-29 01:39:00,0.0,1.90437,0.00039,402.777,0.033,0.5213,0.0023,139.997,45.000,34224.05723,1.91431,405.341,32.434,45.068,45.000,0.00,0.09,-272.73,-272.78,-5,982,-4,22.8,14.1,-6.0,22.5,14.5,-5.8,5.73,1.96,-5.8,26.8
2015-05-29 01:40:00,0.0,1.90441,0.00033,402.785,0.035,0.5165,0.0024,140.000,45.000,34225.39825,1.91425,405.330,32.436,45.068,45.000,0.00,0.09,-272.72,-272.78,-6,982,-4,22.8,14.0,-6.1,22.5,14.5,-5.9,5.73,1.97,-5.8,26.9
2015-05-29 01:41:00,0.0,1.90442,0.00029,402.780,0.031,0.5152,0.0025,139.999,45.000,34223.75234,1.91418,405.312,32.438,45.068,45.000,0.00,0.09,-272.72,-272.77,-6,982,-4,22.8,13.9,-6.1,22.5,14.3,-6.0,5.73,1.96,-5.7,26.8
2015-05-29 01:42:00,0.0,1.90425,0.00039,402.795,0.027,0.5189,0.0016,140.000,45.000,34224.17425,1.91415,405.346,32.439,45.068,45.000,0.00,0.09,-272.73,-272.78,-6,982,-4,22.8,14.1,-6.0,22.5,14.4,-5.9,5.73,1.96,-5.8,26.9
2015-05-29 01:43:00,0.0,1.90399,0.00039,402.776,0.032,0.5218,0.0028,139.996,45.000,34224.26505,1.91394,405.344,32.440,45.068,45.000,0.00,0.09,-272.73,-272.78,-6,982,-4,22.8,14.2,-5.9,22.5,14.5,-5.8,5.73,1.97,-5.8,26.9
2015-05-29 01:44:00,0.0,1.90393,0.00033,402.724,0.038,0.5309,0.0026,139.994,45.000,34221.48677,1.91401,405.336,32.467,45.068,45.000,0.00,0.09,-272.72,-272.77,-6,982,-4,22.8,14.4,-5.7,22.5,14.8,-5.6,5.73,1.97,-5.8,27.0
2015-05-29 01:45:00,0.0,1.90411,0.00029,402.754,0.033,0.5266,0.0021,140.000,45.000,34224.78866,1.91412,405.346,32.460,45.068,45.000,0.00,0.09,-272.72,-272.79,-6,982,-4,22.8,14.3,-5.8,22.5,14.7,-5.7,5.73,1.96,-5.8,27.0
2015-05-29 01:46:00,0.0,1.90398,0.00041,402.746,0.033,0.5301,0.0019,139.999,45.000,34220.97662,1.91409,405.354,32.486,45.068,45.000,0.00,0.09,-272.72,-272.79,-6,982,-4,22.8,14.4,-5.7,22.5,14.8,-5.6,5.73,1.96,-5.8,27.0